| time (UTC) | temp F | wind direction | speed MPH | gust MPH | rain 1hr in | rain 24hr in | rain mn in | humidity % | barometer mb |
| 20260510175518 | 65 | 0.0 | 1.0 | 0.00 | 0.21 | 0.21 | 43 | 1023.4 | |
| 20260510174518 | 64 | 158 | 1.0 | 3.0 | 0.00 | 0.21 | 0.21 | 44 | 1023.5 |
| 20260510173518 | 65 | 23 | 1.0 | 3.0 | 0.00 | 0.21 | 0.21 | 45 | 1023.6 |
| 20260510172518 | 64 | 0.0 | 2.0 | 0.00 | 0.21 | 0.21 | 46 | 1023.6 | |
| 20260510171518 | 64 | 0.0 | 3.0 | 0.00 | 0.21 | 0.21 | 53 | 1023.7 | |
| 20260510170518 | 63 | 158 | 1.0 | 3.0 | 0.00 | 0.21 | 0.21 | 51 | 1023.7 |
| 20260510165519 | 62 | 158 | 1.0 | 3.0 | 0.00 | 0.21 | 0.21 | 53 | 1023.3 |
| 20260510164518 | 61 | 158 | 1.0 | 3.0 | 0.00 | 0.21 | 0.21 | 57 | 1023.5 |
| 20260510163520 | 60 | 135 | 2.0 | 5.0 | 0.00 | 0.21 | 0.21 | 64 | 1023.3 |
| 20260510162520 | 60 | 158 | 1.0 | 4.0 | 0.00 | 0.21 | 0.21 | 58 | 1023.2 |
| 20260510161520 | 60 | 203 | 1.0 | 4.0 | 0.00 | 0.21 | 0.21 | 60 | 1023.3 |
| 20260510160520 | 59 | 158 | 1.0 | 2.0 | 0.00 | 0.21 | 0.21 | 66 | 1023.3 |
| 20260510155520 | 59 | 135 | 1.0 | 3.0 | 0.00 | 0.21 | 0.21 | 64 | 1023.2 |
| 20260510154520 | 58 | 0.0 | 1.0 | 0.00 | 0.21 | 0.21 | 73 | 1023.3 | |
| 20260510153520 | 56 | 0.0 | 1.0 | 0.00 | 0.21 | 0.21 | 78 | 1023.0 | |
| 20260510152521 | 55 | 0.0 | 1.0 | 0.00 | 0.21 | 0.21 | 76 | 1022.5 | |
| 20260510151520 | 54 | 0.0 | 2.0 | 0.00 | 0.21 | 0.21 | 77 | 1022.6 | |
| 20260510150540 | 53 | 0.0 | 2.0 | 0.00 | 0.21 | 0.21 | 79 | 1022.3 | |
| 20260510145520 | 53 | 0.0 | 2.0 | 0.00 | 0.21 | 0.21 | 83 | 1022.3 | |
| 20260510144520 | 51 | 0.0 | 1.0 | 0.00 | 0.21 | 0.21 | 88 | 1022.0 | |
| 20260510143520 | 50 | 315 | 1.0 | 2.0 | 0.00 | 0.21 | 0.21 | 87 | 1022.1 |
| 20260510142520 | 50 | 0.0 | 1.0 | 0.00 | 0.21 | 0.21 | 89 | 1022.1 | |
| 20260510141520 | 49 | 0.0 | 1.0 | 0.00 | 0.21 | 0.21 | 92 | 1022.1 | |
| 20260510140520 | 48 | 0.0 | 1.0 | 0.00 | 0.21 | 0.21 | 93 | 1021.9 | |
| 20260510135520 | 48 | 0.0 | 1.0 | 0.00 | 0.21 | 0.21 | 96 | 1021.9 | |
| 20260510134520 | 47 | 0.0 | 0.0 | 0.00 | 0.21 | 0.21 | 97 | 1021.9 | |
| 20260510133520 | 47 | 0.0 | 0.0 | 0.00 | 0.21 | 0.21 | 97 | 1021.9 | |
| 20260510132540 | 46 | 0.0 | 0.0 | 0.00 | 0.21 | 0.21 | 97 | 1021.8 | |
| 20260510131520 | 46 | 0.0 | 0.0 | 0.00 | 0.21 | 0.21 | 97 | 1021.4 | |
| 20260510130520 | 45 | 0.0 | 0.0 | 0.00 | 0.21 | 0.21 | 97 | 1021.7 | |
| 20260510125520 | 45 | 0.0 | 0.0 | 0.00 | 0.21 | 0.21 | 97 | 1021.5 | |
| 20260510124520 | 44 | 0.0 | 0.0 | 0.00 | 0.21 | 0.21 | 96 | 1021.1 | |
| 20260510123520 | 44 | 0.0 | 0.0 | 0.00 | 0.21 | 0.21 | 96 | 1021.5 | |
| 20260510122520 | 44 | 0.0 | 0.0 | 0.00 | 0.21 | 0.21 | 96 | 1021.4 | |
| 20260510121520 | 43 | 0.0 | 0.0 | 0.00 | 0.21 | 0.21 | 96 | 1021.2 | |
| 20260510120520 | 43 | 0.0 | 0.0 | 0.00 | 0.21 | 0.21 | 95 | 1021.5 | |
| 20260510115520 | 43 | 0.0 | 0.0 | 0.00 | 0.21 | 0.21 | 95 | 1021.6 | |
| 20260510114520 | 44 | 0.0 | 0.0 | 0.00 | 0.21 | 0.21 | 95 | 1021.5 | |
| 20260510113520 | 44 | 0.0 | 0.0 | 0.00 | 0.21 | 0.21 | 95 | 1023.5 | |
| 20260510112520 | 44 | 0.0 | 0.0 | 0.00 | 0.21 | 0.21 | 95 | 1023.5 | |
| 20260510111520 | 44 | 0.0 | 0.0 | 0.00 | 0.21 | 0.21 | 94 | 1023.6 | |
| 20260510110520 | 45 | 0.0 | 0.0 | 0.00 | 0.21 | 0.21 | 94 | 1023.5 | |
| 20260510105540 | 45 | 0.0 | 0.0 | 0.00 | 0.21 | 0.21 | 94 | 1023.7 | |
| 20260510104520 | 45 | 0.0 | 0.0 | 0.00 | 0.21 | 0.21 | 94 | 1023.5 | |
| 20260510103520 | 46 | 0.0 | 2.0 | 0.00 | 0.21 | 0.21 | 93 | 1023.3 | |
| 20260510102520 | 46 | 180 | 1.0 | 4.0 | 0.01 | 0.21 | 0.21 | 93 | 1023.1 |
| 20260510101520 | 46 | 135 | 1.0 | 3.0 | 0.01 | 0.21 | 0.21 | 93 | 1023.2 |
| 20260510100520 | 46 | 180 | 1.0 | 1.0 | 0.03 | 0.21 | 0.21 | 94 | 1023.8 |
| 20260510095520 | 47 | 0.0 | 1.0 | 0.05 | 0.21 | 0.21 | 94 | 1024.0 | |
| 20260510094520 | 47 | 0.0 | 0.0 | 0.08 | 0.21 | 0.21 | 93 | 1024.0 | |
| 20260510093519 | 47 | 0.0 | 0.0 | 0.11 | 0.21 | 0.21 | 93 | 1024.4 | |
| 20260510092520 | 47 | 0.0 | 0.0 | 0.10 | 0.20 | 0.20 | 94 | 1024.3 | |
| 20260510091540 | 48 | 0.0 | 0.0 | 0.10 | 0.20 | 0.20 | 94 | 1024.3 | |
| 20260510090540 | 48 | 0.0 | 0.0 | 0.08 | 0.18 | 0.18 | 94 | 1024.6 | |
| 20260510085520 | 48 | 0.0 | 0.0 | 0.06 | 0.16 | 0.16 | 94 | 1024.5 | |
| 20260510084519 | 48 | 0.0 | 1.0 | 0.04 | 0.13 | 0.13 | 94 | 1024.5 | |
| 20260510083519 | 48 | 0.0 | 1.0 | 0.02 | 0.10 | 0.10 | 93 | 1024.3 | |
| 20260510082519 | 48 | 0.0 | 0.0 | 0.02 | 0.10 | 0.10 | 91 | 1024.0 | |
| 20260510081519 | 48 | 0.0 | 0.0 | 0.02 | 0.10 | 0.10 | 93 | 1023.6 | |
| 20260510080520 | 48 | 0.0 | 0.0 | 0.02 | 0.10 | 0.10 | 93 | 1023.9 | |
| 20260510075520 | 48 | 0.0 | 0.0 | 0.05 | 0.10 | 0.10 | 93 | 1024.0 | |
| 20260510074520 | 48 | 0.0 | 0.0 | 0.06 | 0.09 | 0.09 | 93 | 1023.8 | |
| 20260510073519 | 48 | 0.0 | 0.0 | 0.08 | 0.08 | 0.08 | 92 | 1024.1 | |
| 20260510072520 | 48 | 0.0 | 0.0 | 0.08 | 0.08 | 0.08 | 92 | 1024.3 | |
| 20260510071519 | 48 | 0.0 | 0.0 | 0.08 | 0.08 | 0.08 | 91 | 1024.2 | |
| 20260510070519 | 48 | 135 | 1.0 | 3.0 | 0.08 | 0.08 | 0.08 | 90 | 1023.5 |
| 20260510065519 | 49 | 158 | 2.0 | 5.0 | 0.05 | 0.05 | 0.05 | 88 | 1023.7 |
| 20260510064520 | 49 | 180 | 2.0 | 5.0 | 0.03 | 0.03 | 0.03 | 87 | 1024.0 |
| 20260510063520 | 49 | 0.0 | 4.0 | 0.00 | 0.00 | 0.00 | 85 | 1023.8 | |
| 20260510062519 | 49 | 0.0 | 0.0 | 0.00 | 0.00 | 0.00 | 84 | 1023.8 | |
| 20260510061539 | 49 | 180 | 1.0 | 4.0 | 0.00 | 0.00 | 0.00 | 83 | 1023.3 |
| 20260510060520 | 49 | 0.0 | 3.0 | 0.00 | 0.00 | 0.00 | 83 | 1023.2 | |
| 20260510055520 | 50 | 135 | 1.0 | 3.0 | 0.00 | 0.00 | 0.00 | 82 | 1023.5 |
| 20260510054519 | 50 | 203 | 1.0 | 4.0 | 0.00 | 0.00 | 0.00 | 80 | 1023.3 |
| 20260510053519 | 50 | 0.0 | 1.0 | 0.00 | 0.00 | 0.00 | 78 | 1023.1 | |
| 20260510052519 | 50 | 0.0 | 1.0 | 0.00 | 0.00 | 0.00 | 77 | 1023.0 | |
| 20260510051519 | 50 | 0.0 | 1.0 | 0.00 | 0.00 | 0.00 | 75 | 1022.9 | |
| 20260510050539 | 51 | 0.0 | 2.0 | 0.00 | 0.00 | 0.00 | 73 | 1023.1 | |
| 20260510045519 | 51 | 0.0 | 0.0 | 0.00 | 0.00 | 0.00 | 71 | 1023.0 | |
| 20260510044519 | 51 | 0.0 | 1.0 | 0.00 | 0.00 | 0.00 | 69 | 1022.8 | |
| 20260510043539 | 51 | 0.0 | 1.0 | 0.00 | 0.00 | 0.00 | 69 | 1022.8 | |
| 20260510042539 | 51 | 0.0 | 0.0 | 0.00 | 0.00 | 0.00 | 67 | 1022.7 | |
| 20260510041520 | 51 | 0.0 | 0.0 | 0.00 | 0.00 | 0.00 | 67 | 1022.6 | |
| 20260510040519 | 51 | 0.0 | 0.0 | 0.00 | 0.00 | 0.00 | 67 | 1021.8 | |
| 20260510035519 | 51 | 0.0 | 0.0 | 0.00 | 0.00 | 0.00 | 66 | 1021.8 | |
| 20260510034519 | 52 | 0.0 | 2.0 | 0.00 | 0.00 | 0.00 | 65 | 1021.7 | |
| 20260510033559 | 52 | 338 | 1.0 | 6.0 | 0.00 | 0.00 | 0.00 | 65 | 1021.2 |
| 20260510032519 | 52 | 315 | 1.0 | 5.0 | 0.00 | 0.00 | 0.00 | 65 | 1021.2 |
| 20260510031519 | 52 | 315 | 2.0 | 5.0 | 0.00 | 0.00 | 0.00 | 65 | 1021.4 |
| 20260510030519 | 52 | 315 | 1.0 | 4.0 | 0.00 | 0.00 | 0.00 | 66 | 1020.5 |
| 20260510025519 | 52 | 315 | 2.0 | 5.0 | 0.00 | 0.00 | 0.00 | 66 | 1020.2 |
| 20260510024519 | 52 | 315 | 2.0 | 7.0 | 0.00 | 0.00 | 0.00 | 67 | 1019.6 |
| 20260510023519 | 52 | 315 | 1.0 | 6.0 | 0.00 | 0.00 | 0.00 | 66 | 1018.3 |
| 20260510022519 | 52 | 315 | 3.0 | 5.0 | 0.00 | 0.00 | 0.00 | 66 | 1018.3 |
| 20260510021539 | 53 | 315 | 2.0 | 7.0 | 0.00 | 0.00 | 0.00 | 65 | 1018.4 |
| 20260510020519 | 53 | 315 | 3.0 | 8.0 | 0.00 | 0.00 | 0.00 | 66 | 1016.7 |
| 20260510015519 | 53 | 315 | 2.0 | 11.0 | 0.00 | 0.00 | 0.00 | 65 | 1015.9 |
| 20260510014519 | 53 | 315 | 4.0 | 11.0 | 0.00 | 0.00 | 0.00 | 64 | 1016.1 |
| 20260510013519 | 54 | 315 | 3.0 | 11.0 | 0.00 | 0.00 | 0.00 | 64 | 1015.1 |
| 20260510011519 | 54 | 315 | 4.0 | 11.0 | 0.00 | 0.00 | 0.00 | 63 | 1015.0 |
| 20260510010519 | 55 | 315 | 4.0 | 8.0 | 0.00 | 0.00 | 0.00 | 64 | 1014.6 |
| 20260510005519 | 55 | 315 | 3.0 | 8.0 | 0.00 | 0.00 | 0.00 | 64 | 1014.4 |
| 20260510004559 | 55 | 315 | 4.0 | 10.0 | 0.00 | 0.00 | 0.00 | 64 | 1013.7 |
| 20260510003519 | 56 | 315 | 4.0 | 10.0 | 0.00 | 0.00 | 0.00 | 64 | 1013.3 |
| 20260510002519 | 56 | 315 | 4.0 | 12.0 | 0.00 | 0.00 | 0.00 | 63 | 1012.6 |
| 20260510001519 | 57 | 315 | 5.0 | 10.0 | 0.00 | 0.00 | 0.00 | 61 | 1012.7 |
| 20260510000519 | 57 | 315 | 5.0 | 11.0 | 0.00 | 0.00 | 0.00 | 61 | 1012.5 |
| 20260509235519 | 58 | 315 | 4.0 | 15.0 | 0.00 | 0.00 | 0.00 | 58 | 1012.0 |
| 20260509234519 | 59 | 315 | 5.0 | 15.0 | 0.00 | 0.00 | 0.00 | 55 | 1011.7 |
| 20260509233519 | 61 | 315 | 5.0 | 10.0 | 0.00 | 0.00 | 0.00 | 49 | 1011.3 |
| 20260509232519 | 65 | 338 | 4.0 | 16.0 | 0.00 | 0.00 | 0.00 | 43 | 1011.3 |
| 20260509231519 | 71 | 0 | 1.0 | 4.0 | 0.00 | 0.00 | 0.00 | 28 | 1011.5 |
| 20260509230519 | 71 | 0.0 | 1.0 | 0.00 | 0.00 | 0.00 | 29 | 1010.8 | |
| 20260509225519 | 71 | 0.0 | 1.0 | 0.00 | 0.00 | 0.00 | 28 | 1010.3 | |
| 20260509224519 | 71 | 0.0 | 2.0 | 0.00 | 0.00 | 0.00 | 29 | 1010.4 | |
| 20260509223519 | 71 | 0.0 | 2.0 | 0.00 | 0.00 | 0.00 | 29 | 1010.3 | |
| 20260509222519 | 71 | 0.0 | 6.0 | 0.00 | 0.00 | 0.00 | 30 | 1010.3 | |
| 20260509221539 | 71 | 0.0 | 2.0 | 0.00 | 0.00 | 0.00 | 31 | 1010.5 | |
| 20260509220540 | 71 | 45 | 1.0 | 4.0 | 0.00 | 0.00 | 0.00 | 29 | 1010.8 |
| 20260509215519 | 71 | 0.0 | 3.0 | 0.00 | 0.00 | 0.00 | 30 | 1010.9 | |
| 20260509214518 | 72 | 203 | 1.0 | 3.0 | 0.00 | 0.00 | 0.00 | 30 | 1010.8 |
| 20260509213519 | 72 | 68 | 1.0 | 3.0 | 0.00 | 0.00 | 0.00 | 29 | 1011.2 |
| 20260509212519 | 72 | 45 | 1.0 | 4.0 | 0.00 | 0.00 | 0.00 | 28 | 1011.2 |
| 20260509211519 | 73 | 135 | 1.0 | 4.0 | 0.00 | 0.00 | 0.00 | 29 | 1011.5 |
| 20260509210519 | 72 | 23 | 1.0 | 5.0 | 0.00 | 0.00 | 0.00 | 28 | 1011.9 |
| 20260509205519 | 73 | 225 | 1.0 | 4.0 | 0.00 | 0.00 | 0.00 | 27 | 1011.9 |
| 20260509204518 | 74 | 23 | 1.0 | 5.0 | 0.00 | 0.00 | 0.00 | 25 | 1012.1 |
| 20260509203518 | 75 | 0.0 | 0.0 | 0.00 | 0.00 | 0.00 | 18 | 1012.0 | |
| 20260509202518 | 76 | 0.0 | 2.0 | 0.00 | 0.00 | 0.00 | 18 | 1012.1 | |
| 20260509201518 | 75 | 0.0 | 1.0 | 0.00 | 0.00 | 0.00 | 19 | 1012.3 | |
| 20260509200539 | 75 | 0.0 | 2.0 | 0.00 | 0.00 | 0.00 | 20 | 1012.2 | |
| 20260509195518 | 75 | 0.0 | 3.0 | 0.00 | 0.00 | 0.00 | 18 | 1012.2 | |
| 20260509194519 | 76 | 315 | 2.0 | 7.0 | 0.00 | 0.00 | 0.00 | 17 | 1012.3 |
| 20260509193519 | 78 | 0 | 1.0 | 3.0 | 0.00 | 0.00 | 0.00 | 18 | 1012.7 |
| 20260509192519 | 77 | 315 | 2.0 | 8.0 | 0.00 | 0.00 | 0.00 | 18 | 1012.8 |
| 20260509191518 | 79 | 315 | 1.0 | 6.0 | 0.00 | 0.00 | 0.00 | 17 | 1012.8 |
| 20260509190518 | 78 | 315 | 2.0 | 5.0 | 0.00 | 0.00 | 0.00 | 16 | 1013.2 |
| 20260509185518 | 77 | 0 | 3.0 | 8.0 | 0.00 | 0.00 | 0.00 | 17 | 1013.2 |
| 20260509184538 | 77 | 315 | 3.0 | 10.0 | 0.00 | 0.00 | 0.00 | 16 | 1013.3 |
| 20260509183518 | 77 | 315 | 3.0 | 9.0 | 0.00 | 0.00 | 0.00 | 17 | 1014.1 |
| 20260509182518 | 77 | 315 | 4.0 | 8.0 | 0.00 | 0.00 | 0.00 | 17 | 1014.2 |
| 20260509181518 | 76 | 315 | 2.0 | 7.0 | 0.00 | 0.00 | 0.00 | 18 | 1014.0 |
| 20260509180518 | 76 | 315 | 3.0 | 9.0 | 0.00 | 0.00 | 0.00 | 17 | 1013.8 |